SCP
0 0 0 0 0 0 0 0 0 0 0 0 0 0 0 0 0 0 0 0 0 0 0 0 0 0 0 0 0 0 -0 -0 -0 0 0 0 0 0 0 0 0 0 0
0 0 0 0 0 0 0 0 0 0 0 0 0 0 0 0 0 0 0 0 0 0 0 0 0 0 0 0 0 0 0 0 0 0 0 0 0 0 0 0 0 0 0
0 0 0 0 0 0 0 0 0 0 0 0 0 0 0 0 0 0 0 0 0 0 0 0 0 0 0 0 0 0 0 0 0 0 0 0 0 0 0 0 0 0 0
0 0 0 0 0 0 0 0 0 0 0 0 0 0 0 0 0 0 0 0 0 0 0 0 0 0 0 0 0 0 0 0 0 0 0 0 0 0 0 0 0 0 0
0 0 0 0 0 0 0 0 0 0 0 0 0 0 0 0 0 0 0 0 0 0 0 0 0 0 0 0 0 0 0 0 0 0 0 0 0 0 0 0 0 0 0
0 0 0 0 0 0 0 0 0 0 0 0 0 0 0 0 0 0 0 0 0 0 0 0 0 0 0 0 0 0 0 0 0 0 0 0 0 0 0 0 0 0 0
0 0 0 0 0 0 0 0 0 0 0 0 -0 0 0 0 0 0 0 0 0 0 0 0 0 0 0 0 0 0 0 0 0 0 0 0 0 0 0 0 0 0 0
0 0 0 0 0 0 0 0 0 0 0 0 0 0 0 0 0 0 0 0 0 0 0 0 0 0 0 0 0 0 0 0 0 0 0 0 0 0 0 0 0 0 0
0 0 0 0 0 0 0 0 0 0 0 0 0 0 0 0 0 0 0 0 0 0 0 0 0 0 0 0 0 0 0 0 0 0 0 0 0 0 0 0 0 0 0
0 0 0 0 0 0 0 0 0 0 0 0 0 0 0 0 0 0 0 0 0 0 0 0 0 0 0 0 0 0 0 0 0 0 0 0 0 0 0 0 0 0 0
0 0 0 0 0 0 0 0 0 0 0 0 0 0 0 0 0 0 0 0 0 0 0 0 0 0 0 0 -0 0 0 0 0 0 0 0 0 0 0 0 0 0 0
0 0 0 0 0 0 0 0 0 0 0 0 0 0 0 0 0 0 0 0 0 -0 0 0 0 0 0 0 0 0 0 0 0 0 0 0 0 0 0 0 0 0 0
0 0 0 0 0 0 0 0 0 0 0 0 0 0 0 0 0 0 0 0 0 0 0 0 0 0 0 0 0 0 0 0 0 0 0 0 0 0 0 0 0 0 0
0 0 0 0 0 0 0 0 0 0 0 0 0 0 0 0 0 0 0 0 0 0 0 0 0 0 0 0 0 0 0 0 0 0 0 0 0 0 0 0 0 0 0
0 0 0 0 0 0 0 0 0 0 0 0 0 0 0 0 0 0 0 0 0 0 0 0 0 0 0 0 0 0 0 0 0 0 0 0 0 0 0 0 0 0 0
0 0 0 0 0 0 0 0 0 0 0 0 0 0 0 0 0 0 0 0 0 0 0 0 0 0 0 0 0 0 0 0 0 0 0 0 0 0 0 0 0 0 0
0 0 0 0 0 0 0 0 0 0 0 0 0 0 0 0 0 0 0 0 0 0 0 0 0 0 0 0 0 0 0 0 0 0 0 0 0 0 0 0 0 0 0
0 0 0 0 0 0 0 0 0 0 0 0 0 0 0 0 0 0 0 0 0 0 0 0 0 0 0 0 0 0 0 0 0 0 0 0 0 0 0 0 0 0 0
0 0 0 0 0 0 0 0 0 0 0 0 0 0 0 0 0 0 0 0 0 0 0 0 0 0 0 0 0 0 0 0 0 0 0 0 0 0 0 0 0 0 0
0 0 0 0 0 0 0 0 0 0 0 0 0 0 0 0 0 0 0 0 0 0 0 0 0 0 0 0 0 0 0 0 0 0 0 0 0 0 0 0 0 0 0
0 0 0 0 0 0 0 0 0 0 0 0 0 0 0 0 0 0 0 0 0 0 0 0 0 0 0 0 0 0 0 0 0 0 0 0 0 0 0 0 0 0 0
0 0 0 0 0 0 0 0 0 0 0 0 0 0 0 0 0 0 0 0 0 0 0 0 0 0 0 0 0 0 0 0 0 0 0 0 0 0 0 0 0 0 0
0 0 0 0 0 0 0 0 0 0 0 0 0 0 0 0 0 0 0 0 0 0 0 0 0 0 0 0 0 0 0 0 0 0 0 0 0 0 0 0 0 0 0
0 0 0 0 0 0 0 0 0 0 0 0 0 0 0 0 0 0 0 0 0 0 0 0 0 0 0 0 0 0 0 0 0 0 0 0 0 0 0 0 0 0 0
0 0 0 0 0 0 0 0 0 0 0 0 0 0 0 0 0 0 0 0 0 0 0 0 0 0 0 0 0 0 0 0 0 0 0 0 0 0 0 0 0 0 0
0 0 0 0 0 0 0 0 0 0 0 0 0 0 0 0 0 0 0 0 0 0 0 0 0 0 0 0 0 0 0 0 0 0 0 0 0 0 0 0 0 0 0
Wind_Speed_500mb
8 8 7 5 4 4 4 4 5 5 6 9 11 13 17 20 24 27 29 30 31 32 32 34 33 34 33 35 37 32 36 37 42 45 46 49 50 52 55 61 63 73 64
9 7 4 2 1 1 1 1 1 3 5 8 12 15 20 20 26 28 29 33 32 29 30 31 30 33 36 36 38 39 39 39 41 44 49 51 52 52 53 54 55 60 69
13 11 8 6 3 3 6 5 5 4 6 9 13 16 20 23 27 28 34 32 25 26 29 31 32 36 36 38 40 41 43 41 42 45 46 51 52 53 57 59 62 64 61
19 16 13 10 6 3 2 5 6 8 7 12 15 16 22 25 29 30 33 24 22 25 31 32 33 35 35 36 38 40 38 36 39 43 45 51 54 60 67 71 69 71 75
17 19 15 13 8 4 6 8 12 15 19 21 23 25 24 30 28 26 25 24 26 29 26 29 28 32 32 35 38 40 39 40 42 43 44 51 55 56 58 60 61 60 59
18 17 13 9 10 13 14 17 18 20 24 32 30 26 26 25 18 25 13 32 26 20 27 30 32 33 37 38 40 42 44 45 48 56 58 59 61 62 64 64 64 63 64
27 21 17 16 18 20 22 23 23 24 26 38 40 26 23 20 19 10 27 25 19 19 35 31 35 34 35 37 36 39 47 54 59 64 69 72 75 75 72 71 68 69 69
32 29 24 26 27 26 28 28 26 28 31 30 28 32 16 12 4 25 24 17 18 37 37 39 32 39 42 40 42 52 57 63 66 70 73 76 77 79 79 73 71 71 73
38 33 33 33 34 34 32 30 31 30 30 28 26 17 10 9 34 15 15 32 35 42 40 31 39 45 42 40 56 60 63 65 67 69 73 77 80 82 83 83 79 77 76
40 39 38 38 42 38 33 37 34 29 26 26 29 24 19 19 10 14 20 27 37 39 39 40 43 31 41 54 63 66 68 68 68 67 68 70 72 75 77 80 81 81 81
41 44 43 43 39 38 39 36 30 28 25 28 26 24 17 15 16 15 25 40 40 41 36 38 35 44 51 59 68 65 61 60 60 63 66 69 72 73 73 74 77 78 79
41 46 45 44 41 41 37 32 28 26 26 27 19 14 12 13 19 22 33 42 42 35 34 43 22 43 51 59 57 57 59 62 65 68 67 69 71 73 76 76 77 78 78
39 44 45 43 41 37 33 28 27 29 23 17 13 11 12 18 23 29 34 39 44 38 32 37 35 42 57 59 61 63 64 65 67 70 71 71 68 70 71 73 76 79 80
42 43 43 45 41 35 33 36 32 23 17 14 11 12 15 19 23 27 32 38 43 37 42 29 41 50 58 61 63 65 66 65 68 69 70 69 69 69 72 75 79 79 78
49 46 45 45 38 38 36 31 25 20 17 14 13 14 16 20 23 27 32 36 37 33 40 38 46 56 60 62 64 63 63 62 65 64 67 69 69 68 70 75 82 80 73
52 51 46 44 43 39 34 30 24 19 17 14 14 14 15 17 21 25 29 33 36 37 30 47 51 57 63 62 61 62 60 61 60 58 61 65 63 59 61 67 75 69 67
53 52 47 46 41 39 37 31 26 22 19 17 15 12 13 15 19 22 25 29 34 38 42 49 54 57 59 60 61 61 57 54 53 57 58 57 54 49 57 60 58 60 62
53 52 51 47 45 41 36 31 27 24 20 17 13 11 12 13 16 18 22 26 31 37 44 50 54 58 60 61 61 60 53 51 53 54 55 52 47 39 37 45 51 58 63
53 55 54 50 46 41 36 33 29 24 20 17 13 10 9 11 14 19 23 27 32 38 42 48 53 55 57 60 60 52 47 49 53 49 52 46 40 30 33 42 46 52 62
57 57 56 52 47 42 39 34 29 25 20 16 11 9 7 9 13 18 24 31 35 39 43 47 51 54 56 56 53 56 55 51 55 50 45 41 33 26 33 41 44 53 61
53 57 58 55 49 44 38 32 29 24 19 15 11 9 6 10 15 20 27 33 38 41 44 45 48 52 52 53 52 49 52 58 55 55 47 40 38 34 31 36 36 47 58
63 62 58 52 48 44 37 32 27 23 19 15 12 9 9 14 18 24 29 35 39 38 39 41 42 47 45 42 45 40 47 55 55 49 48 38 38 43 33 30 35 46 57
68 64 60 55 49 42 37 33 28 24 21 17 15 12 15 18 21 25 31 35 34 35 36 37 40 39 40 42 40 35 40 44 44 42 41 38 42 52 35 28 36 47 55
67 63 59 54 47 41 37 32 28 26 24 21 17 17 21 21 24 28 31 33 34 33 34 34 35 34 37 38 29 31 40 40 33 35 32 42 42 46 40 29 36 50 54
69 65 58 53 47 41 36 31 29 29 27 19 22 26 24 24 27 31 32 33 36 30 30 33 31 33 34 29 27 28 35 38 38 35 27 39 42 47 41 31 41 49 49
68 63 59 53 46 41 36 31 31 28 21 24 37 31 30 28 28 31 31 34 36 33 33 31 28 25 29 25 26 30 36 36 35 38 32 41 40 46 35 29 49 46 43
Wind_Direction_500mb
145 138 137 123 101 96 105 97 84 71 57 52 44 33 19 6 1 355 350 349 342 340 337 334 332 332 331 326 326 316 310 310 308 311 314 314 313 311 308 303 306 308 297
195 195 200 205 141 14 174 115 37 40 40 50 22 10 7 1 350 342 341 340 336 332 335 338 336 329 325 326 326 323 321 321 318 313 310 311 308 307 307 307 305 303 291
223 225 231 236 213 93 75 74 51 49 50 9 356 348 343 344 332 334 333 333 335 334 334 331 329 328 324 321 318 316 318 320 311 304 301 301 302 302 302 301 301 300 302
234 233 234 234 227 213 96 54 2 340 323 333 324 322 319 326 330 327 326 330 330 334 334 340 334 331 328 325 322 323 329 344 340 328 320 305 302 299 295 299 300 293 293
250 246 231 233 232 230 282 300 301 303 306 301 300 311 320 328 327 329 329 326 330 339 349 346 343 339 336 333 330 328 328 334 334 338 330 323 317 313 310 306 302 301 302
248 270 235 205 252 261 278 285 291 293 303 296 299 314 312 328 329 329 341 330 336 5 4 350 344 337 336 339 337 334 337 338 335 330 327 325 323 320 317 314 314 311 306
252 257 257 254 261 266 276 284 288 293 300 301 315 317 325 314 317 21 330 346 360 13 352 352 340 345 348 345 344 347 340 336 335 333 331 329 326 323 323 320 319 314 310
247 257 258 258 259 268 272 277 283 287 289 308 312 320 324 332 126 328 354 1 17 356 357 352 350 353 352 352 352 343 341 338 334 330 327 323 321 320 320 322 322 319 315
253 253 250 253 256 261 271 275 281 285 288 293 301 305 313 306 323 337 348 348 352 354 354 352 352 349 353 348 344 341 339 334 330 328 324 322 319 316 314 314 316 317 315
247 245 247 250 256 261 267 277 278 279 276 280 286 292 294 286 296 312 330 339 347 350 355 352 355 1 354 341 342 341 339 336 333 328 324 322 319 316 314 313 314 316 316
246 246 248 253 257 265 271 274 264 263 264 267 277 286 295 294 292 312 313 333 345 355 355 359 357 350 348 345 341 342 340 338 335 336 336 334 332 329 328 326 323 320 317
248 249 250 255 256 263 266 260 255 250 252 268 270 277 292 313 327 327 324 334 343 3 359 357 358 350 346 341 341 344 345 347 345 345 342 338 335 334 331 329 325 323 321
248 252 251 251 255 257 251 242 244 260 252 253 264 279 309 323 327 328 332 336 340 348 355 354 346 346 339 345 348 351 354 351 349 348 346 345 342 339 335 332 329 326 323
248 254 250 249 250 242 238 246 247 238 238 246 262 290 313 318 325 329 334 339 343 344 347 348 343 343 345 350 352 356 357 355 354 354 353 351 348 344 341 338 336 332 328
243 248 246 246 234 237 246 231 223 224 233 242 269 294 309 320 328 336 338 340 345 343 341 338 334 345 348 352 356 359 359 356 360 359 356 355 354 352 350 350 348 342 336
239 247 240 229 231 233 220 217 220 224 232 250 271 288 307 322 332 337 337 338 340 340 335 331 340 345 350 352 356 358 359 358 3 358 360 1 2 3 6 6 7 9 9
233 242 230 228 224 213 210 214 217 222 236 249 262 282 311 322 331 336 338 338 337 336 336 336 341 346 349 349 352 358 359 359 2 0 2 4 3 8 14 19 19 21 19
229 235 222 224 213 208 210 212 216 225 235 246 260 286 303 324 332 335 334 335 336 334 333 335 343 345 347 349 351 354 359 2 4 359 3 4 1 6 10 16 13 18 12
233 225 216 213 208 210 212 214 220 226 234 244 255 277 303 330 333 335 333 333 333 333 333 337 341 343 345 346 347 349 355 0 2 4 359 359 360 4 9 9 9 11 10
232 215 208 206 207 210 212 216 221 227 231 239 252 267 299 331 329 328 331 331 332 333 335 336 338 339 343 343 344 348 353 359 354 2 4 355 357 348 350 359 12 9 10
226 206 205 204 206 209 214 219 224 230 233 236 242 256 301 315 320 326 329 329 332 334 336 334 335 337 340 336 342 348 348 351 353 356 5 350 356 351 343 350 7 5 6
208 202 203 208 209 210 214 220 227 231 234 231 235 252 285 299 316 323 326 330 333 336 333 332 331 329 328 332 334 344 345 347 354 354 357 3 354 351 340 342 351 351 357
204 202 205 208 209 212 215 221 226 232 228 226 236 252 279 296 310 318 323 330 338 338 334 326 320 323 322 320 329 335 338 343 345 345 343 360 0 358 349 339 337 341 348
205 206 208 209 211 214 217 221 228 230 226 227 240 261 275 291 304 314 321 329 336 335 329 319 317 316 312 313 318 325 329 333 337 334 336 344 349 355 350 336 337 339 342
207 208 209 212 214 215 215 222 228 227 225 234 267 260 272 284 297 308 320 323 322 323 319 317 312 310 307 304 303 313 318 322 326 332 326 338 341 343 345 335 338 337 341
212 212 212 213 214 214 214 220 223 224 231 267 255 262 268 280 296 305 313 312 315 321 314 311 314 306 299 290 293 303 312 313 317 324 322 330 335 341 339 328 335 338 343
Wind_Speed_850mb
8 8 7 5 4 4 4 4 5 5 6 9 11 13 17 20 24 27 29 30 31 32 32 34 33 34 33 35 37 32 36 37 42 45 46 49 50 52 55 61 63 73 64
9 7 4 2 1 1 1 1 1 3 5 8 12 15 20 20 26 28 29 33 32 29 30 31 30 33 36 36 38 39 39 39 41 44 49 51 52 52 53 54 55 60 69
13 11 8 6 3 3 6 5 5 4 6 9 13 16 20 23 27 28 34 32 25 26 29 31 32 36 36 38 40 41 43 41 42 45 46 51 52 53 57 59 62 64 61
19 16 13 10 6 3 2 5 6 8 7 12 15 16 22 25 29 30 33 24 22 25 31 32 33 35 35 36 38 40 38 36 39 43 45 51 54 60 67 71 69 71 75
17 19 15 13 8 4 6 8 12 15 19 21 23 25 24 30 28 26 25 24 26 29 26 29 28 32 32 35 38 40 39 40 42 43 44 51 55 56 58 60 61 60 59
18 17 13 9 10 13 14 17 18 20 24 32 30 26 26 25 18 25 13 32 26 20 27 30 32 33 37 38 40 42 44 45 48 56 58 59 61 62 64 64 64 63 64
27 21 17 16 18 20 22 23 23 24 26 38 40 26 23 20 19 10 27 25 19 19 35 31 35 34 35 37 36 39 47 54 59 64 69 72 75 75 72 71 68 69 69
32 29 24 26 27 26 28 28 26 28 31 30 28 32 16 12 4 25 24 17 18 37 37 39 32 39 42 40 42 52 57 63 66 70 73 76 77 79 79 73 71 71 73
38 33 33 33 34 34 32 30 31 30 30 28 26 17 10 9 34 15 15 32 35 42 40 31 39 45 42 40 56 60 63 65 67 69 73 77 80 82 83 83 79 77 76
40 39 38 38 42 38 33 37 34 29 26 26 29 24 19 19 10 14 20 27 37 39 39 40 43 31 41 54 63 66 68 68 68 67 68 70 72 75 77 80 81 81 81
41 44 43 43 39 38 39 36 30 28 25 28 26 24 17 15 16 15 25 40 40 41 36 38 35 44 51 59 68 65 61 60 60 63 66 69 72 73 73 74 77 78 79
41 46 45 44 41 41 37 32 28 26 26 27 19 14 12 13 19 22 33 42 42 35 34 43 22 43 51 59 57 57 59 62 65 68 67 69 71 73 76 76 77 78 78
39 44 45 43 41 37 33 28 27 29 23 17 13 11 12 18 23 29 34 39 44 38 32 37 35 42 57 59 61 63 64 65 67 70 71 71 68 70 71 73 76 79 80
42 43 43 45 41 35 33 36 32 23 17 14 11 12 15 19 23 27 32 38 43 37 42 29 41 50 58 61 63 65 66 65 68 69 70 69 69 69 72 75 79 79 78
49 46 45 45 38 38 36 31 25 20 17 14 13 14 16 20 23 27 32 36 37 33 40 38 46 56 60 62 64 63 63 62 65 64 67 69 69 68 70 75 82 80 73
52 51 46 44 43 39 34 30 24 19 17 14 14 14 15 17 21 25 29 33 36 37 30 47 51 57 63 62 61 62 60 61 60 58 61 65 63 59 61 67 75 69 67
53 52 47 46 41 39 37 31 26 22 19 17 15 12 13 15 19 22 25 29 34 38 42 49 54 57 59 60 61 61 57 54 53 57 58 57 54 49 57 60 58 60 62
53 52 51 47 45 41 36 31 27 24 20 17 13 11 12 13 16 18 22 26 31 37 44 50 54 58 60 61 61 60 53 51 53 54 55 52 47 39 37 45 51 58 63
53 55 54 50 46 41 36 33 29 24 20 17 13 10 9 11 14 19 23 27 32 38 42 48 53 55 57 60 60 52 47 49 53 49 52 46 40 30 33 42 46 52 62
57 57 56 52 47 42 39 34 29 25 20 16 11 9 7 9 13 18 24 31 35 39 43 47 51 54 56 56 53 56 55 51 55 50 45 41 33 26 33 41 44 53 61
53 57 58 55 49 44 38 32 29 24 19 15 11 9 6 10 15 20 27 33 38 41 44 45 48 52 52 53 52 49 52 58 55 55 47 40 38 34 31 36 36 47 58
63 62 58 52 48 44 37 32 27 23 19 15 12 9 9 14 18 24 29 35 39 38 39 41 42 47 45 42 45 40 47 55 55 49 48 38 38 43 33 30 35 46 57
68 64 60 55 49 42 37 33 28 24 21 17 15 12 15 18 21 25 31 35 34 35 36 37 40 39 40 42 40 35 40 44 44 42 41 38 42 52 35 28 36 47 55
67 63 59 54 47 41 37 32 28 26 24 21 17 17 21 21 24 28 31 33 34 33 34 34 35 34 37 38 29 31 40 40 33 35 32 42 42 46 40 29 36 50 54
69 65 58 53 47 41 36 31 29 29 27 19 22 26 24 24 27 31 32 33 36 30 30 33 31 33 34 29 27 28 35 38 38 35 27 39 42 47 41 31 41 49 49
68 63 59 53 46 41 36 31 31 28 21 24 37 31 30 28 28 31 31 34 36 33 33 31 28 25 29 25 26 30 36 36 35 38 32 41 40 46 35 29 49 46 43
Wind_Direction_850mb
145 138 137 123 101 96 105 97 84 71 57 52 44 33 19 6 1 355 350 349 342 340 337 334 332 332 331 326 326 316 310 310 308 311 314 314 313 311 308 303 306 308 297
195 195 200 205 141 14 174 115 37 40 40 50 22 10 7 1 350 342 341 340 336 332 335 338 336 329 325 326 326 323 321 321 318 313 310 311 308 307 307 307 305 303 291
223 225 231 236 213 93 75 74 51 49 50 9 356 348 343 344 332 334 333 333 335 334 334 331 329 328 324 321 318 316 318 320 311 304 301 301 302 302 302 301 301 300 302
234 233 234 234 227 213 96 54 2 340 323 333 324 322 319 326 330 327 326 330 330 334 334 340 334 331 328 325 322 323 329 344 340 328 320 305 302 299 295 299 300 293 293
250 246 231 233 232 230 282 300 301 303 306 301 300 311 320 328 327 329 329 326 330 339 349 346 343 339 336 333 330 328 328 334 334 338 330 323 317 313 310 306 302 301 302
248 270 235 205 252 261 278 285 291 293 303 296 299 314 312 328 329 329 341 330 336 5 4 350 344 337 336 339 337 334 337 338 335 330 327 325 323 320 317 314 314 311 306
252 257 257 254 261 266 276 284 288 293 300 301 315 317 325 314 317 21 330 346 360 13 352 352 340 345 348 345 344 347 340 336 335 333 331 329 326 323 323 320 319 314 310
247 257 258 258 259 268 272 277 283 287 289 308 312 320 324 332 126 328 354 1 17 356 357 352 350 353 352 352 352 343 341 338 334 330 327 323 321 320 320 322 322 319 315
253 253 250 253 256 261 271 275 281 285 288 293 301 305 313 306 323 337 348 348 352 354 354 352 352 349 353 348 344 341 339 334 330 328 324 322 319 316 314 314 316 317 315
247 245 247 250 256 261 267 277 278 279 276 280 286 292 294 286 296 312 330 339 347 350 355 352 355 1 354 341 342 341 339 336 333 328 324 322 319 316 314 313 314 316 316
246 246 248 253 257 265 271 274 264 263 264 267 277 286 295 294 292 312 313 333 345 355 355 359 357 350 348 345 341 342 340 338 335 336 336 334 332 329 328 326 323 320 317
248 249 250 255 256 263 266 260 255 250 252 268 270 277 292 313 327 327 324 334 343 3 359 357 358 350 346 341 341 344 345 347 345 345 342 338 335 334 331 329 325 323 321
248 252 251 251 255 257 251 242 244 260 252 253 264 279 309 323 327 328 332 336 340 348 355 354 346 346 339 345 348 351 354 351 349 348 346 345 342 339 335 332 329 326 323
248 254 250 249 250 242 238 246 247 238 238 246 262 290 313 318 325 329 334 339 343 344 347 348 343 343 345 350 352 356 357 355 354 354 353 351 348 344 341 338 336 332 328
243 248 246 246 234 237 246 231 223 224 233 242 269 294 309 320 328 336 338 340 345 343 341 338 334 345 348 352 356 359 359 356 360 359 356 355 354 352 350 350 348 342 336
239 247 240 229 231 233 220 217 220 224 232 250 271 288 307 322 332 337 337 338 340 340 335 331 340 345 350 352 356 358 359 358 3 358 360 1 2 3 6 6 7 9 9
233 242 230 228 224 213 210 214 217 222 236 249 262 282 311 322 331 336 338 338 337 336 336 336 341 346 349 349 352 358 359 359 2 0 2 4 3 8 14 19 19 21 19
229 235 222 224 213 208 210 212 216 225 235 246 260 286 303 324 332 335 334 335 336 334 333 335 343 345 347 349 351 354 359 2 4 359 3 4 1 6 10 16 13 18 12
233 225 216 213 208 210 212 214 220 226 234 244 255 277 303 330 333 335 333 333 333 333 333 337 341 343 345 346 347 349 355 0 2 4 359 359 360 4 9 9 9 11 10
232 215 208 206 207 210 212 216 221 227 231 239 252 267 299 331 329 328 331 331 332 333 335 336 338 339 343 343 344 348 353 359 354 2 4 355 357 348 350 359 12 9 10
226 206 205 204 206 209 214 219 224 230 233 236 242 256 301 315 320 326 329 329 332 334 336 334 335 337 340 336 342 348 348 351 353 356 5 350 356 351 343 350 7 5 6
208 202 203 208 209 210 214 220 227 231 234 231 235 252 285 299 316 323 326 330 333 336 333 332 331 329 328 332 334 344 345 347 354 354 357 3 354 351 340 342 351 351 357
204 202 205 208 209 212 215 221 226 232 228 226 236 252 279 296 310 318 323 330 338 338 334 326 320 323 322 320 329 335 338 343 345 345 343 360 0 358 349 339 337 341 348
205 206 208 209 211 214 217 221 228 230 226 227 240 261 275 291 304 314 321 329 336 335 329 319 317 316 312 313 318 325 329 333 337 334 336 344 349 355 350 336 337 339 342
207 208 209 212 214 215 215 222 228 227 225 234 267 260 272 284 297 308 320 323 322 323 319 317 312 310 307 304 303 313 318 322 326 332 326 338 341 343 345 335 338 337 341
212 212 212 213 214 214 214 220 223 224 231 267 255 262 268 280 296 305 313 312 315 321 314 311 314 306 299 290 293 303 312 313 317 324 322 330 335 341 339 328 335 338 343